Regional Weather Roundup
Issued by NWS Green Bay, WI

Home | Current Version | Previous Version | Graphics & Text | Print | Product List | Glossary Off
Versions: 1 2 3 4 5 6 7 8 9 10 11 12 13 14 15 16 17 18 19 20 21 22 23 24 25 26 27 28 29 30 31 32 33 34 35 36 37 38 39 40 41 42 43 44 45 46 47 48 49 50

908
ASUS43 KGRB 181011
RWRGRB

NORTH-CENTRAL AND NORTHEAST WISCONSIN REGIONAL WEATHER ROUNDUP
NATIONAL WEATHER SERVICE GREEN BAY WI
400 AM CST SAT NOV 18 2017

WIZ005-009-010>012-018-019-181100-
NORTH CENTRAL WISCONSIN

CITY           SKY/WX    TMP DP  RH WIND       PRES   REMARKS
IRONWOOD       CLOUDY   N/A N/A N/A CALM      29.65R HAZE
MANITOWISH WTR CLOUDY    32  32 100 N3        29.62R FOG
ARBOR VITAE    FOG       34  33  96 N7        29.61R VSB 1/2
EAGLE RIVER    CLOUDY    32  32 100 N5        29.60R FOG
LAND O LAKES   FOG       33  33 100 N7        29.62R VSB 1/4
RHINELANDER    CLOUDY    32  32 100 N6        29.60R FOG
PHILLIPS       CLOUDY    32  32 100 N5        29.62F FOG
ANTIGO         CLOUDY    32  32 100 N10G16    29.60R
TOMAHAWK       FOG       32  32  99 N5        29.60S VSB 1
MERRILL        CLOUDY    34  34 100 N8        29.61S
$$

WIZ013-073-181100-
NORTHEAST WISCONSIN

CITY           SKY/WX    TMP DP  RH WIND       PRES   REMARKS
IRON MOUNTAIN  CLOUDY    34  31  88 N10       29.56F FOG
MARINETTE      CLOUDY    35  33  92 N6        29.59S
OCONTO         CLOUDY    35  33  93 N7        29.59F
$$

WIZ017-030-035>037-045-181100-
CENTRAL WISCONSIN

CITY           SKY/WX    TMP DP  RH WIND       PRES   REMARKS
MEDFORD        CLOUDY    32  32  99 N7        29.58F FOG
WAUSAU         CLOUDY    34  32  92 N7        29.59S
MOSINEE        CLOUDY    34  34 100 N7        29.60S
MARSHFIELD     CLOUDY    34  31  88 N9        29.57F
WISC RAPIDS    CLOUDY    35  33  92 N7        29.59F
STEVENS POINT  CLOUDY    33  33 100 N5        29.59F
WAUPACA        CLOUDY    37  36  96 N3        29.60S FOG
SHAWANO        CLOUDY    35  33  92 CALM      29.61R
CLINTONVILLE   CLOUDY    36  34  93 N3        29.60R
WAUTOMA        CLOUDY    36  34  92 N7        29.58F
$$

WIZ038-039-048-051-181100-
FOX VALLEY

CITY           SKY/WX    TMP DP  RH WIND       PRES   REMARKS
NWS GREEN BAY  CLOUDY    36  35  96 N10       29.59R
APPLETON       CLOUDY    34  34 100 N8        29.57S
OSHKOSH        CLOUDY    37  34  89 N12       29.58S
FOND DU LAC    LGT RAIN  37  33  85 N10       29.58R
$$

WIZ022-050-052-181100-
EAST CENTRAL WISCONSIN

CITY           SKY/WX    TMP DP  RH WIND       PRES   REMARKS
EPHRAIM        CLOUDY    37  34  90 N10G20    29.56R
WASHINGTON ISL CLOUDY    37  34  89 N16       29.56R
STURGEON BAY   CLOUDY    38  35  89 N15       29.57R
MANITOWOC      CLOUDY    37  35  92 NW7       29.58R
SHEBOYGAN      CLOUDY    37  36  96 N8        29.57R
$$

LMZ563-521-522-541>543-181100-
LAKESHORE

STATION/POSITION TIME  TEMP    WIND        PRES    VSBY  WAVE
                       AIR SEA DIR/SP/G                  HT/PER
                 (UTC) (F)     (DEG/KT/KT) (MB)    (MI)  (FT/S)
SHEBOYGAN LKSHOR 1000   38     330/ 12/ 13 1001.7R
NORTHPORT PIER   0940   39      10/ 18/ 24 1001.0F
N MID LAKE BUOY  0950   40 48  350/ 19/ 25 1000.9R         6/ 8
SISTER BAY LKSHO 1004   39      20/ 11/ 16   N/A
$$




USA.gov is the U.S. government's official web portal to all federal, state and local government web resources and services.